Notices

What's New in latest Release from April 7th, 2021:

- Updated Glossary, including Speed of Maximum Gust, and Total Hourly Precipitation

- Updated national and regional climate services offices contacts and prices information

- Addition of station inventory lists for 1981-2010, 1971-2000, and 1961-1990 Normals.

If you haven't already, please take our survey and provide feedback about our website: https://eccc.sondage-survey.ca/f/LanguageSelection.aspx?s=442ca660-fcf1-47c0-95a9-59707d6fd709

Hourly Data Report for December 03, 2020

MUSKOKA
ONTARIO
Current Station Operator: NAVCAN

44°58'29.000" N
79°18'12.000" W
281.90 m
6115529
71532
YQA

Download Data

Hourly Data (December 2020)
Hourly Data Report for December 3, 2020
TIME
LST
Temp Definition
°C
Dew Point Definition
°C
Rel Hum Definition
%
Precip. Amount Definition
mm

Wind Dir Definition
10's deg

Wind Spd Definition
km/h
Visibility Definition
km
Stn Press Definition
kPa
Hmdx Definition


Wind Chill Definition


Weather Definition


00:00 0.3 -1.9 85 LegendMM 22 9 16.1 97.97     LegendNANA
01:00 0.7 -1.4 86 LegendMM 23 9 16.1 97.90     LegendNANA
02:00 1.0 -0.9 87 LegendMM 21 11 16.1 97.87     LegendNANA
03:00 0.8 -0.8 89 LegendMM 21 13 16.1 97.83     LegendNANA
04:00 1.1 -0.5 89 LegendMM 22 13 16.1 97.81     LegendNANA
05:00 1.3 -1.0 85 LegendMM 21 18 16.1 97.82     LegendNANA
06:00 0.9 -1.5 84 LegendMM 20 21 16.1 97.81     LegendNANA
07:00 0.8 -1.4 85 LegendMM 21 17 16.1 97.80     LegendNANA
08:00 1.1 -0.2 91 LegendMM 24 15 8.1 97.84     Snow
09:00 1.4 -0.1 90 LegendMM 25 13 16.1 97.87     LegendNANA
10:00 0.8 -0.2 93 LegendMM 25 17 4.8 97.93     Snow
11:00 0.6 0.0 96 LegendMM 25 9 4.8 97.95     Snow
12:00 0.5 -0.1 96 LegendMM 26 11 9.7 97.91     Snow
13:00 1.1 0.4 95 LegendMM 24 9 16.1 97.86     LegendNANA
14:00 1.5 -0.1 89 LegendMM 23 9 16.1 97.78     LegendNANA
15:00 0.8 0.1 95 LegendMM 20 15 16.1 97.80     LegendNANA
16:00 0.5 -0.1 96 LegendMM 20 15 3.6 97.79     Snow
17:00 0.3 -0.3 96 LegendMM 19 15 2.8 97.79     Snow
18:00 0.5 -0.4 94 LegendMM 20 17 8.1 97.80     Fog
19:00 0.5 -0.4 94 LegendMM 19 11 9.7 97.76     Fog
20:00 0.7 -0.6 91 LegendMM 20 11 14.5 97.74     LegendNANA
21:00 0.4 -0.8 92 LegendMM 18 15 11.3 97.70     LegendNANA
22:00 0.4 -1.2 89 LegendMM 19 11 14.5 97.67     LegendNANA
23:00 0.4 -1.5 87 LegendMM 19 11 16.1 97.61     LegendNANA

Notes on Data Quality.

Legend

  • E = Estimated
  • M = Missing
  • NA = Not Available*
  • [empty] = Indicates an unobserved value
Date modified: